Weather in Khoromnoye

Russia / Bryansk Oblast     52°04′07″N   32°02′06″E
temp.,
°C
wind,
m/s
gust,
m/s
humid.,
%
clouds,
%
prec.,
mm/h
press.,
hPa
HPBL,
m
18 april, sun
sun1800:00+6w3586100 0.6 1018286
03:00+5sw3693100 2.7 1017764
06:00+5wsw2495100 1.3 1016341
09:00+6ese2293100 1.5 1015310
12:00+6e4686100 0.3 1017738
15:00+10ese356198 0.3 10181383
18:00+11ene245724 0.0 10171095
21:00+8ne137677 0.1 101976
19 april, mon
mon1900:00+5ne23865 0.0 101935
03:00+4ene34935 0.0 101964
06:00+3nne23955 0.0 101965
09:00+8nne467960 0.0 1019577
12:00+10ne456897 0.3 10181093
15:00+9ne567675 0.8 1018884
18:00+9nne378175 0.1 1018491
21:00+7ne5118685 0.6 1018462
20 april, tue
tue2000:00+6ne5108848 0.0 1017451
03:00+5ne598753 0.0 1016458
06:00+4ne489066 0.0 1015447
09:00+6ne578496 0.0 1014615
12:00+7nne578395 0.0 1012658
15:00+9nne6772100 0.1 1010974
18:00+8n61080100 0.0 1008535
21:00+6nnw6118899 0.0 1008502
21 april, wed
wed2100:00+5nw5991100 0.0 1006476
03:00+5nw51093100 0.1 1006531
06:00+4wnw51089100 0.0 1007718
09:00+6wnw687199 0.1 1008973
12:00+8w5856100 0.0 10091655
15:00+9sw797494 0.3 10101128
18:00+9w476698 0.2 10111093
21:00+6sw227983 0.2 101214
22 april, thu
thu2200:00+7ssw2482100 0.0 101279
03:00+5ssw229380 0.0 101328
06:00+5s349516 0.0 101481
09:00+10ssw47725 0.0 1014431
12:00+15ssw68565 0.1 10141461
15:00+16sw785046 0.9 10141982
18:00+14sw476599 2.0 1014473
21:00+10wsw3888100 4.6 1016193